Location: Göttingen
(51.5413°N, 9.9158°E)
Time: 12:11:36
(UTC+02:00)

SR - All Passes

Search period start: 28 May 2022 00:00
Search period end: 07 June 2022 00:00
Orbit: 574 x 879 km, 66.7° (Epoch: 27 May)

Date Brightness Start Highest point End Pass type
(mag) Time Alt. Az. Time Alt. Az. Time Alt. Az.
28 May - 04:21:22 10° SE 04:23:22 12° ESE 04:25:26 10° ENE visible
28 May - 05:59:26 10° SSW 06:04:19 70° ESE 06:09:42 10° NE daylight
28 May - 07:42:17 10° W 07:46:52 32° NNW 07:51:50 10° NNE daylight
28 May - 09:27:05 10° NW 09:30:40 18° N 09:34:25 10° NNE daylight
28 May - 11:10:41 10° NNW 11:14:49 20° NNE 11:19:06 10° ENE daylight
28 May - 12:52:45 10° NNW 12:58:17 46° NE 13:03:57 10° ESE daylight
28 May - 14:34:55 10° NW 14:40:30 49° WSW 14:46:11 10° SSE daylight
29 May - 05:09:53 10° S 05:14:25 39° ESE 05:19:22 10° NE daylight
29 May - 06:51:34 10° WSW 06:56:26 47° NW 07:01:45 10° NNE daylight
29 May - 08:35:59 10° WNW 08:39:52 20° NNW 08:43:58 10° NNE daylight
29 May - 10:20:18 10° NNW 10:24:01 18° N 10:27:52 10° NE daylight
29 May - 12:02:42 10° NNW 12:07:50 32° NNE 12:13:06 10° E daylight
29 May - 13:44:41 10° NW 13:50:30 81° SW 13:56:26 10° SSE daylight
29 May - 15:27:59 10° WNW 15:31:50 18° WSW 15:35:44 10° SSW daylight
30 May - 04:21:00 10° SSE 04:24:43 22° ESE 04:28:41 10° ENE visible
30 May - 06:01:11 10° SW 06:06:09 75° NW 06:11:39 10° NE daylight
30 May - 07:44:53 10° W 07:49:10 25° NNW 07:53:44 10° NNE daylight
30 May - 09:29:39 10° NW 09:33:11 17° N 09:36:51 10° NE daylight
30 May - 11:12:38 10° NNW 11:17:14 25° NNE 11:21:58 10° E daylight
30 May - 12:54:35 10° NW 13:00:20 66° NE 13:06:14 10° SE daylight
30 May - 14:37:05 10° NW 14:42:09 31° WSW 14:47:17 10° S daylight
31 May - 03:33:36 10° ESE 03:35:12 11° E 03:36:51 10° E visible
31 May - 05:11:12 10° SSW 05:16:05 65° ESE 05:21:28 10° NE daylight
31 May - 06:53:55 10° W 06:58:35 34° NW 07:03:37 10° NNE daylight
31 May - 08:38:41 10° NW 08:42:20 18° N 08:46:09 10° NNE daylight
31 May - 10:22:25 10° NNW 10:26:30 20° NNE 10:30:44 10° ENE daylight
31 May - 12:04:31 10° NNW 12:10:01 44° NE 12:15:39 10° ESE daylight
31 May - 13:46:39 10° NW 13:52:18 53° WSW 13:58:01 10° SSE daylight
31 May - 15:32:08 10° W 15:33:12 10° W 15:34:16 10° WSW daylight
01 Jun - 04:21:42 10° S 04:26:13 36° ESE 04:31:06 10° NE visible
01 Jun - 06:03:14 10° WSW 06:08:10 50° NW 06:13:33 10° NNE daylight
01 Jun - 07:47:34 10° WNW 07:51:33 21° NNW 07:55:44 10° NNE daylight
01 Jun - 09:31:59 10° NW 09:35:42 18° N 09:39:32 10° NE daylight
01 Jun - 11:14:28 10° NNW 11:19:32 31° NNE 11:24:45 10° E daylight
01 Jun - 12:56:26 10° NW 13:02:17 85° SW 13:08:13 10° SSE daylight
01 Jun - 14:39:36 10° WNW 14:43:40 20° WSW 14:47:46 10° SSW daylight
02 Jun - 03:32:56 10° SSE 03:36:32 20° ESE 03:40:22 10° ENE visible
02 Jun - 05:12:53 10° SW 05:17:54 80° NW 05:23:26 10° NE daylight
02 Jun - 06:56:29 10° W 07:00:51 26° NNW 07:05:31 10° NNE daylight
02 Jun - 08:41:16 10° NW 08:44:51 17° N 08:48:33 10° NE daylight
02 Jun - 10:24:21 10° NNW 10:28:55 24° NNE 10:33:37 10° ENE daylight
02 Jun - 12:06:20 10° NW 12:12:05 62° NE 12:17:58 10° SE daylight
02 Jun - 13:48:47 10° NW 13:53:58 34° WSW 13:59:11 10° S daylight
03 Jun - 02:46:02 10° ESE 02:47:02 11° E 02:48:03 10° E visible
03 Jun - 04:22:58 10° SSW 04:27:51 61° ESE 04:33:13 10° NE visible
03 Jun - 06:05:33 10° WSW 06:10:17 35° NW 06:15:24 10° NNE daylight
03 Jun - 07:50:17 10° NW 07:54:00 18° N 07:57:53 10° NNE daylight
03 Jun - 09:34:07 10° NNW 09:38:11 20° NNE 09:42:22 10° ENE daylight
03 Jun - 11:16:16 10° NNW 11:21:44 42° NE 11:27:20 10° ESE daylight
03 Jun - 12:58:23 10° NW 13:04:05 56° WSW 13:09:51 10° SSE daylight
03 Jun - 14:43:12 10° W 14:45:03 11° W 14:46:54 10° WSW daylight
04 Jun - 03:33:33 10° S 03:38:00 34° ESE 03:42:50 10° NE visible
04 Jun - 05:14:54 10° WSW 05:19:52 53° NW 05:25:19 10° NNE daylight
04 Jun - 06:59:10 10° WNW 07:03:13 21° NNW 07:07:30 10° NNE daylight
04 Jun - 08:43:39 10° NW 08:47:21 18° N 08:51:12 10° NE daylight
04 Jun - 10:26:12 10° NNW 10:31:15 30° NNE 10:36:24 10° E daylight
04 Jun - 12:08:11 10° NW 12:14:02 90° WSW 12:19:59 10° SE daylight
04 Jun - 13:51:13 10° WNW 13:55:30 21° WSW 13:59:46 10° SSW daylight
05 Jun - 02:44:52 10° SSE 02:48:20 19° ESE 02:52:00 10° ENE visible
05 Jun - 04:24:36 10° SW 04:29:38 85° NW 04:35:12 10° NE daylight
05 Jun - 06:08:05 10° W 06:12:32 27° NNW 06:17:18 10° NNE daylight
05 Jun - 07:52:53 10° NW 07:56:31 17° N 08:00:14 10° NE daylight
05 Jun - 09:36:05 10° NNW 09:40:36 23° NNE 09:45:15 10° ENE daylight
05 Jun - 11:18:05 10° NW 11:23:50 59° NE 11:29:41 10° SE daylight
05 Jun - 13:00:29 10° NW 13:05:46 36° WSW 13:11:04 10° S daylight
06 Jun - 03:34:43 10° SSW 03:39:36 57° ESE 03:44:59 10° NE visible
06 Jun - 05:17:11 10° WSW 05:21:59 37° NW 05:27:11 10° NNE daylight
06 Jun - 07:01:52 10° NW 07:05:39 19° NNW 07:09:37 10° NNE daylight
06 Jun - 08:45:48 10° NNW 08:49:51 19° NNE 08:54:00 10° ENE daylight
06 Jun - 10:28:02 10° NNW 10:33:27 40° NE 10:39:01 10° ESE daylight
06 Jun - 12:10:07 10° NW 12:15:52 60° WSW 12:21:40 10° SSE daylight
06 Jun - 13:54:30 10° WNW 13:56:52 13° WSW 13:59:14 10° SW daylight
